[[[{"header":{"parameterUnit":"kt","parameterCategory":2,"dx":1,"dy":1,"la1":30.253999710083008,"la2":30.299108505249023,"lo1":-89.0895004272461,"lo2":-89.04439544677734,"nx":28,"ny":28,"refTime":"2022-11-01T21:00:00:Z","depth":"0","parameterNumber":2,"parameterNumberName":"U-component_of_CURRENTS"},"data":[0.4915,0.4987,0.5111,0.5131,0.5195,0.5052,0.4978,0.4783,0.4668,0.4254,0.3971,0.39,0.3609,0.3073,0.2588,0.2509,0.2441,0.2172,0.2469,0.3,0.3118,0.3231,0.2995,0.2115,0.2114,0.1421,0.1416,0.1412,0.5026,0.5174,0.5304,0.542,0.5442,0.5556,0.5545,0.5401,0.5258,0.5203,0.5103,0.4725,0.4421,0.4259,0.3766,0.3517,0.3448,0.3378,0.3142,0.3186,0.3952,0.3711,0.2968,0.2968,0.2968,0.2969,0.2969,0.2969,0.5272,0.5323,0.5507,0.5606,0.5698,0.5724,0.5672,0.5733,0.5711,0.5578,0.5742,0.558,0.5379,0.5338,0.5301,0.478,0.5083,0.4557,0.465,0.459,0.4299,0.5091,0.4754,0.476,0.4766,0.477,0.4775,0,0.5436,0.5534,0.5647,0.5783,0.585,0.5921,0.5988,0.5988,0.6104,0.6101,0.6064,0.6089,0.6105,0.5922,0.5967,0.5951,0.5771,0.5946,0.5798,0.5027,0.4765,0.4709,0.5782,0.5519,0.553,0.5538,0.5543,0.5548,0.5612,0.5656,0.5872,0.5923,0.6003,0.6073,0.612,0.6252,0.6282,0.6362,0.6344,0.6443,0.648,0.6562,0.6534,0.6616,0.6555,0.62,0.6116,0.585,0.5907,0.5799,0.5731,0.5664,0.5649,0.5637,0.5627,0,0.5696,0.5856,0.5938,0.6126,0.617,0.6189,0.6318,0.6348,0.6431,0.6456,0.6478,0.6629,0.6712,0.6873,0.7031,0.7002,0.6798,0.702,0.6537,0.6487,0.602,0.6051,0.5651,0.5537,0.6812,0.6805,0.6799,0,0.5882,0.5914,0.614,0.6188,0.6228,0.6364,0.6398,0.6486,0.6573,0.6592,0.6741,0.6749,0.6929,0.7006,0.7117,0.708,0.7242,0.7045,0.7062,0.6681,0.6625,0.6471,0.649,0.7364,0.7363,0.7363,0.7362,0,0.6005,0.6134,0.6207,0.6264,0.6457,0.6474,0.6549,0.6666,0.6702,0.6797,0.6824,0.6915,0.6922,0.7041,0.7119,0.7148,0.7215,0.7283,0.7098,0.7082,0.6752,0.6701,0.6338,0.7361,0.736,0.736,0.736,0,0.6176,0.6286,0.6336,0.6513,0.6542,0.656,0.6693,0.672,0.6825,0.687,0.6922,0.6994,0.6992,0.702,0.7112,0.7097,0.7171,0.7204,0.7211,0.6993,0.7033,0.6702,0.649,0.6265,0.7318,0.7317,0.7316,0,0.6307,0.6394,0.6537,0.6569,0.6635,0.6794,0.6806,0.6891,0.6969,0.7011,0.7029,0.7035,0.7061,0.7058,0.7067,0.7122,0.7139,0.7091,0.7314,0.732,0.7065,0.6938,0.6474,0.6507,0.7305,0.7306,0.7307,0,0.6438,0.6693,0.6687,0.6772,0.6923,0.6948,0.6967,0.7049,0.7084,0.7106,0.7117,0.7058,0.7117,0.7115,0.7128,0.7124,0.7124,0.7194,0.72,0.7243,0.7258,0.6963,0.6944,0.7183,0.7183,0.7184,0.7298,0,0.6778,0.6827,0.6807,0.6945,0.6986,0.6995,0.7113,0.7146,0.7211,0.7268,0.725,0.7246,0.7267,0.7225,0.7235,0.7201,0.7263,0.7304,0.7358,0.7296,0.7354,0.736,0.7327,0.733,0.7332,0.7334,0,0,0.6887,0.6959,0.7096,0.7123,0.7169,0.7313,0.7308,0.7344,0.7399,0.7418,0.7437,0.7435,0.7418,0.7371,0.7336,0.7332,0.7396,0.7336,0.7317,0.7314,0.7312,0.7365,0.7368,0.7338,0.7339,0.734,0.734,0,0.7039,0.7125,0.7123,0.7188,0.7286,0.7362,0.7364,0.745,0.748,0.7464,0.7529,0.7506,0.7477,0.7476,0.7469,0.7368,0.7446,0.7365,0.7283,0.7334,0.7328,0.7324,0.7373,0.7375,0.7346,0.7345,0.7345,0,0.7217,0.7309,0.7314,0.7399,0.7446,0.747,0.7565,0.757,0.7578,0.7651,0.7633,0.7647,0.7656,0.7595,0.7569,0.7593,0.7509,0.7499,0.7489,0.75,0.7558,0.755,0.7543,0.7634,0.7635,0.7635,0,0,0.7324,0.736,0.7471,0.7429,0.7464,0.7553,0.7566,0.7625,0.7655,0.7668,0.7688,0.7699,0.7681,0.7659,0.7652,0.7573,0.7635,0.753,0.7516,0.7505,0.7508,0.7563,0.7555,0.7637,0.7637,0.7637,0,0,0.7346,0.7492,0.7561,0.7532,0.7582,0.7653,0.7631,0.7697,0.771,0.7721,0.7764,0.7764,0.7711,0.7722,0.7746,0.7649,0.7713,0.7707,0.7616,0.76,0.7587,0.7596,0.7794,0,0,0,0,0,0.7537,0.7482,0.7544,0.7554,0.7621,0.7632,0.7641,0.7714,0.7767,0.7747,0.778,0.7799,0.7754,0.7776,0.7766,0.7696,0.7661,0.7657,0.7653,0.7521,0.7503,0.7488,0,0,0,0,0,0,0.7542,0.7552,0.7545,0.7614,0.763,0.7634,0.7727,0.7746,0.777,0.7782,0.7797,0.78,0.7824,0.7782,0.7772,0.7705,0.7797,0.7659,0.7656,0.7652,0.7515,0.75,0.7488,0,0,0,0,0,0.7545,0.7554,0.7643,0.7615,0.7629,0.7718,0.7729,0.7745,0.7765,0.7794,0.7801,0.782,0.7822,0.7816,0.7776,0.7709,0.7803,0.78,0.7657,0.7654,0.7651,0.7508,0,0,0,0,0,0,0.7548,0.7566,0.7648,0.7655,0.7638,0.7719,0.7734,0.7745,0.7775,0.7784,0.7816,0.7824,0.782,0.7816,0.7811,0.7709,0.7808,0.7805,0.7803,0.7655,0.7652,0.7651,0,0,0,0,0,0,0.7562,0.7571,0.7651,0.7675,0.7686,0.772,0.7733,0.7688,0.7771,0.7794,0.7803,0.7819,0.7802,0.7815,0.7811,0.774,0.7812,0.7809,0.7807,0.7805,0.7653,0.7651,0,0,0,0,0,0,0.7567,0.7575,0.7674,0.7682,0.7691,0.7777,0.7677,0.7726,0.7848,0.7788,0.7855,0.7858,0.7798,0.7797,0.7812,0.7742,0.7741,0.7812,0.781,0.7808,0.7807,0,0,0,0,0,0,0,0.7572,0.7501,0.7607,0.7687,0.7696,0.7723,0.7725,0.7726,0.7848,0.7851,0.7854,0.7857,0.7831,0.7828,0.7824,0.7743,0,0,0.7813,0.7811,0,0,0,0,0,0,0,0,0.7499,0.75,0.7608,0.7609,0.7611,0.7723,0.7724,0.7726,0.7849,0.7851,0.7854,0.7856,0.783,0.7827,0.7824,0,0,0,0,0,0,0,0,0,0,0,0,0,0,0,0.7608,0.7609,0,0.7723,0.7724,0.7726,0.7849,0.7851,0.7853,0.7855,0.783,0.7827,0.7825,0,0,0,0,0,0,0,0,0,0,0,0,0,0,0,0,0,0,0,0,0,0,0,0,0,0,0,0,0,0,0,0,0,0,0,0,0,0,0,0,0,0,0,0,0,0,0,0,0,0,0,0,0,0,0,0,0,0,0,0,0,0,0,0,0,0,0,0,0]}],[{"header":{"parameterUnit":"kt","parameterCategory":2,"dx":1,"dy":1,"la1":30.253999710083008,"la2":30.299108505249023,"lo1":-89.0895004272461,"lo2":-89.04439544677734,"nx":28,"ny":28,"refTime":"2022-11-01T21:00:00:Z","depth":"0","parameterNumber":3,"parameterNumberName":"V-component_of_CURRENTS"},"data":[0.0535,0.0553,0.0527,0.0611,0.0624,0.0727,0.0806,0.0992,0.1201,0.1608,0.1884,0.2068,0.1903,0.1295,0.085,0.0733,0.048,0.0575,0.0467,0.0299,0.0274,0.025,0.0026,0.0479,0.0478,0.036,0.0359,0.0358,0.0472,0.0453,0.0447,0.0416,0.0464,0.0405,0.0487,0.0592,0.0865,0.1148,0.1422,0.1676,0.1634,0.1424,0.112,0.0906,0.07,0.0757,0.0529,0.0481,0.055,0.0349,0.0877,0.0878,0.0878,0.0878,0.0878,0.0878,0.0345,0.0349,0.0287,0.0259,0.0248,0.0275,0.033,0.0388,0.055,0.0802,0.0899,0.1216,0.1187,0.1254,0.1144,0.0885,0.0815,0.0658,0.0571,0.0533,0.0342,0.0432,0.1015,0.1015,0.1014,0.1014,0.1013,0,0.0204,0.0171,0.0118,0.0082,0.0065,0.0033,0.0027,0.0102,0.0061,0.0214,0.0457,0.0596,0.0796,0.0844,0.0922,0.0842,0.0312,0.0516,0.0346,-0.0122,-0.0135,-0.0192,-0.0326,0.027,0.0265,0.0262,0.0259,0.0257,0.0046,0.0043,-0.0088,-0.0109,-0.0184,-0.0203,-0.0224,-0.0328,-0.0307,-0.0194,-0.0108,0.0084,0.0175,0.0421,0.0256,0.0356,0.0056,0.0399,-0.0069,-0.0178,-0.0288,-0.0378,-0.0444,0.0204,0.0211,0.0216,0.0221,0,-0.0033,-0.0172,-0.0218,-0.0383,-0.0416,-0.0404,-0.0514,-0.05,-0.0547,-0.0474,-0.0454,-0.0553,-0.039,-0.0516,-0.0427,-0.0573,-0.0445,-0.0372,-0.0316,-0.0292,-0.0345,-0.0467,0.007,0.0056,0.0059,0.0067,0.0073,0,-0.0261,-0.0271,-0.0488,-0.0527,-0.0506,-0.0731,-0.07,-0.0829,-0.0899,-0.0869,-0.1104,-0.1031,-0.1273,-0.1158,-0.1263,-0.1052,-0.1038,-0.1156,-0.1119,-0.1174,-0.1168,-0.1266,-0.1397,-0.1318,-0.1324,-0.133,-0.1334,0,-0.0441,-0.0604,-0.0624,-0.071,-0.098,-0.0979,-0.1089,-0.1283,-0.1336,-0.1411,-0.1381,-0.1487,-0.1455,-0.1469,-0.156,-0.1756,-0.1313,-0.1593,-0.1341,-0.1324,-0.125,-0.1241,-0.0942,-0.1342,-0.1344,-0.1346,-0.1348,0,-0.0723,-0.0837,-0.087,-0.1084,-0.1131,-0.1189,-0.1349,-0.1454,-0.1634,-0.1729,-0.1821,-0.198,-0.1989,-0.2221,-0.2081,-0.2247,-0.2164,-0.2168,-0.2143,-0.2063,-0.219,-0.1513,-0.1173,-0.1329,-0.1859,-0.1866,-0.1872,0,-0.0872,-0.098,-0.1204,-0.1271,-0.1371,-0.1664,-0.1731,-0.1935,-0.2108,-0.2159,-0.2362,-0.2397,-0.2652,-0.2647,-0.266,-0.2678,-0.2509,-0.2812,-0.2422,-0.2405,-0.2233,-0.1967,-0.1954,-0.1299,-0.196,-0.1951,-0.1944,0,-0.1053,-0.1414,-0.1416,-0.1508,-0.1835,-0.1942,-0.2054,-0.2243,-0.2253,-0.2495,-0.2447,-0.2682,-0.2762,-0.283,-0.2971,-0.2937,-0.2642,-0.2998,-0.2997,-0.2599,-0.2215,-0.2098,-0.2025,-0.2761,-0.2754,-0.2749,-0.2014,0,-0.1437,-0.154,-0.1562,-0.1806,-0.1943,-0.2031,-0.2318,-0.2436,-0.2581,-0.271,-0.2801,-0.2964,-0.3034,-0.315,-0.3231,-0.3167,-0.3079,-0.3241,-0.3222,-0.3158,-0.2848,-0.2792,-0.3497,-0.35,-0.3503,-0.3505,0,0,-0.1536,-0.1677,-0.1956,-0.2045,-0.2137,-0.2447,-0.2479,-0.2627,-0.2837,-0.2863,-0.2939,-0.3111,-0.3245,-0.3267,-0.3289,-0.3403,-0.3258,-0.3371,-0.3257,-0.323,-0.3204,-0.2903,-0.2847,-0.351,-0.3511,-0.3512,-0.3513,0,-0.1713,-0.1903,-0.1938,-0.211,-0.2348,-0.2496,-0.2543,-0.2765,-0.2832,-0.2949,-0.301,-0.3093,-0.3277,-0.3324,-0.3378,-0.3429,-0.3355,-0.3521,-0.3384,-0.3285,-0.3254,-0.3226,-0.2924,-0.2871,-0.3519,-0.3519,-0.3518,0,-0.1891,-0.2072,-0.2114,-0.2381,-0.2497,-0.2598,-0.2718,-0.2826,-0.2883,-0.299,-0.3038,-0.314,-0.3264,-0.3342,-0.3398,-0.3417,-0.338,-0.3546,-0.3538,-0.3471,-0.3367,-0.3335,-0.3307,-0.3642,-0.3641,-0.364,0,0,-0.2006,-0.2111,-0.2382,-0.2425,-0.2517,-0.2692,-0.2757,-0.2843,-0.2945,-0.297,-0.306,-0.3154,-0.3238,-0.329,-0.339,-0.3491,-0.3389,-0.3548,-0.3542,-0.3537,-0.3467,-0.3364,-0.3336,-0.3637,-0.3637,-0.3636,0,0,-0.2024,-0.2313,-0.2406,-0.2479,-0.2659,-0.283,-0.2833,-0.2927,-0.2991,-0.2962,-0.3059,-0.3082,-0.3171,-0.3269,-0.321,-0.34,-0.3443,-0.3457,-0.3281,-0.3277,-0.3272,-0.3145,-0.3259,0,0,0,0,0,-0.2299,-0.2302,-0.2386,-0.2428,-0.2649,-0.2822,-0.2847,-0.2914,-0.2911,-0.2941,-0.2985,-0.3038,-0.3249,-0.3197,-0.3231,-0.3256,-0.3594,-0.3601,-0.3609,-0.3411,-0.3404,-0.3399,0,0,0,0,0,0,-0.2317,-0.2368,-0.2386,-0.2564,-0.2616,-0.2819,-0.2811,-0.283,-0.2907,-0.2907,-0.3023,-0.3041,-0.3089,-0.3187,-0.3216,-0.3237,-0.3249,-0.3597,-0.3603,-0.3609,-0.3408,-0.3403,-0.3399,0,0,0,0,0,-0.2332,-0.2374,-0.271,-0.2562,-0.2606,-0.2727,-0.2807,-0.2823,-0.2868,-0.2989,-0.3007,-0.2918,-0.3088,-0.3117,-0.3205,-0.3221,-0.323,-0.324,-0.3601,-0.3606,-0.3611,-0.3406,0,0,0,0,0,0,-0.2343,-0.2363,-0.272,-0.2736,-0.2536,-0.2715,-0.2744,-0.2816,-0.2945,-0.2966,-0.2887,-0.2886,-0.3089,-0.3112,-0.3134,-0.3209,-0.3213,-0.3224,-0.3231,-0.3605,-0.3609,-0.3612,0,0,0,0,0,0,-0.2343,-0.2375,-0.2727,-0.2691,-0.2703,-0.2703,-0.273,-0.2849,-0.2945,-0.2832,-0.2837,-0.2886,-0.307,-0.3108,-0.3125,-0.3307,-0.3201,-0.3212,-0.3219,-0.3223,-0.3608,-0.3611,0,0,0,0,0,0,-0.2357,-0.2386,-0.2686,-0.2695,-0.2706,-0.2881,-0.2808,-0.3028,-0.2917,-0.2824,-0.2911,-0.2909,-0.3068,-0.3085,-0.3119,-0.3293,-0.3303,-0.3202,-0.3209,-0.3214,-0.3217,0,0,0,0,0,0,0,-0.237,-0.2166,-0.2641,-0.2699,-0.2708,-0.289,-0.2892,-0.2895,-0.2916,-0.2914,-0.2912,-0.291,-0.3143,-0.3154,-0.3165,-0.3282,0,0,-0.3201,-0.3206,0,0,0,0,0,0,0,0,-0.2155,-0.2163,-0.2641,-0.2646,-0.265,-0.289,-0.2892,-0.2894,-0.2916,-0.2914,-0.2912,-0.2911,-0.3146,-0.3155,-0.3164,0,0,0,0,0,0,0,0,0,0,0,0,0,0,0,-0.2642,-0.2645,0,-0.289,-0.2892,-0.2894,-0.2916,-0.2914,-0.2913,-0.2911,-0.3148,-0.3156,-0.3163,0,0,0,0,0,0,0,0,0,0,0,0,0,0,0,0,0,0,0,0,0,0,0,0,0,0,0,0,0,0,0,0,0,0,0,0,0,0,0,0,0,0,0,0,0,0,0,0,0,0,0,0,0,0,0,0,0,0,0,0,0,0,0,0,0,0,0,0,0]}]],[[{"header":{"parameterUnit":"kt","parameterCategory":2,"dx":1,"dy":1,"la1":30.253999710083008,"la2":30.299108505249023,"lo1":-89.0895004272461,"lo2":-89.04439544677734,"nx":28,"ny":28,"refTime":"2022-11-01T21:00:00:Z","depth":"2","parameterNumber":2,"parameterNumberName":"U-component_of_CURRENTS"},"data":[0.2589,0.2567,0.2593,0.2621,0.2714,0.2647,0.2588,0.245,0.2357,0.2165,0.2049,0.2112,0.2182,0.1792,0.1772,0.1618,0.1954,0.1534,0.2438,0.2655,0.2731,0.2983,0.2702,0,0,0,0,0,0.2614,0.2654,0.2743,0.2815,0.2891,0.2976,0.2992,0.288,0.2816,0.2863,0.2821,0.2475,0.2307,0.2381,0.222,0.2189,0.2262,0.2115,0.2229,0.2318,0.2398,0.2155,0.1521,0.1518,0.1514,0.1512,0,0,0.2691,0.2729,0.2786,0.2872,0.2992,0.304,0.3014,0.3103,0.3183,0.3212,0.3338,0.3197,0.3198,0.3007,0.2968,0.2972,0.3266,0.3157,0.3196,0.3245,0.3037,0.2876,0.2639,0.2644,0.2648,0.2651,0.2654,0,0.2722,0.2784,0.2808,0.29,0.299,0.3069,0.3177,0.3241,0.3457,0.356,0.3632,0.3648,0.3711,0.3561,0.3606,0.3627,0.3871,0.3708,0.4419,0.3645,0.35,0.3518,0.3547,0.3416,0.3425,0.3432,0.3437,0.3441,0.2774,0.2778,0.2855,0.2905,0.2963,0.306,0.3169,0.3359,0.3457,0.3692,0.3761,0.3945,0.3973,0.4129,0.4156,0.4257,0.4476,0.3932,0.3826,0.4336,0.4352,0.4351,0.4348,0.3539,0.3527,0.3516,0.3508,0,0.2801,0.2841,0.2871,0.296,0.2979,0.3054,0.3261,0.337,0.3554,0.3724,0.3807,0.4026,0.4175,0.4368,0.4603,0.457,0.4651,0.4616,0.4223,0.418,0.4408,0.4393,0.4416,0.4406,0.4397,0.439,0.4383,0,0.2876,0.2875,0.2956,0.2963,0.3019,0.3151,0.326,0.3391,0.3608,0.3734,0.3904,0.3995,0.4271,0.4416,0.4552,0.4587,0.4788,0.455,0.4565,0.4283,0.423,0.4787,0.4769,0.4929,0.4927,0.4926,0.4925,0,0.2943,0.3004,0.3012,0.3046,0.3191,0.3241,0.3342,0.3514,0.3636,0.3806,0.3908,0.4077,0.4204,0.4375,0.4524,0.4545,0.4744,0.4785,0.4578,0.4559,0.4268,0.4212,0.4924,0.4924,0.4923,0.4923,0.4922,0,0.3072,0.3078,0.3111,0.3199,0.3243,0.3305,0.3442,0.354,0.3724,0.3819,0.3937,0.4036,0.4176,0.4213,0.4435,0.4409,0.4521,0.4586,0.4596,0.4255,0.425,0.4051,0.4047,0.4695,0.4693,0.469,0.4689,0,0.3102,0.3133,0.3217,0.3263,0.3305,0.3452,0.3542,0.3654,0.3753,0.3858,0.3953,0.4034,0.4078,0.4143,0.424,0.4338,0.4429,0.4333,0.4543,0.4547,0.4238,0.4297,0.3955,0.4039,0.4661,0.4664,0.4666,0,0.3137,0.3262,0.3269,0.3305,0.3456,0.3488,0.3602,0.3695,0.377,0.3881,0.3949,0.4004,0.4072,0.4088,0.414,0.4222,0.438,0.4293,0.4297,0.4343,0.4627,0.4301,0.4289,0.4477,0.448,0.4482,0.4644,0,0.3256,0.3285,0.3309,0.3397,0.3456,0.3512,0.3644,0.3718,0.3826,0.3877,0.3961,0.3982,0.4032,0.4074,0.4077,0.4186,0.4221,0.4233,0.4206,0.4291,0.4351,0.4369,0.4137,0.4135,0.4134,0.4133,0,0,0.3271,0.3288,0.3361,0.3407,0.3461,0.3607,0.3646,0.3714,0.3798,0.3827,0.3878,0.3949,0.3961,0.4002,0.4043,0.4052,0.413,0.4079,0.4245,0.4258,0.4269,0.433,0.4349,0.413,0.413,0.4129,0.4129,0,0.329,0.3347,0.3352,0.3409,0.3537,0.3584,0.3634,0.3729,0.3785,0.3834,0.3868,0.3912,0.3953,0.3958,0.397,0.4032,0.4085,0.4099,0.4131,0.4232,0.4246,0.4259,0.4322,0.4339,0.4126,0.4126,0.4126,0,0.3332,0.3374,0.3376,0.3445,0.3514,0.357,0.3628,0.3713,0.3759,0.3759,0.3829,0.3849,0.3857,0.3896,0.3928,0.3917,0.4046,0.399,0.3997,0.3953,0.4052,0.4069,0.4084,0.389,0.3889,0.3889,0,0,0.3351,0.3347,0.3442,0.3457,0.3515,0.3596,0.3639,0.3695,0.3738,0.3762,0.3789,0.3828,0.3845,0.3877,0.3869,0.3902,0.3914,0.3962,0.3973,0.3982,0.3944,0.4044,0.4061,0.3886,0.3886,0.3886,0,0,0.3355,0.3423,0.3473,0.3494,0.3558,0.3606,0.365,0.3705,0.3735,0.3781,0.3784,0.3789,0.3845,0.3838,0.3804,0.3902,0.3857,0.3862,0.3911,0.3924,0.3935,0.3887,0.3794,0,0,0,0,0,0.3415,0.341,0.3455,0.3474,0.354,0.358,0.3587,0.3667,0.3741,0.3746,0.3783,0.3791,0.3827,0.3794,0.379,0.3864,0.3852,0.3858,0.3864,0.3932,0.3947,0.3959,0,0,0,0,0,0,0.3423,0.3438,0.3457,0.3503,0.3524,0.3577,0.3627,0.3643,0.3741,0.3754,0.3781,0.3788,0.3767,0.3796,0.3792,0.3864,0.3795,0.3854,0.3859,0.3864,0.3937,0.3949,0.3959,0,0,0,0,0,0.343,0.3443,0.3534,0.3503,0.352,0.363,0.3628,0.3643,0.371,0.3723,0.3735,0.379,0.3763,0.3766,0.3794,0.3867,0.3798,0.3796,0.3858,0.3862,0.3865,0.3943,0,0,0,0,0,0,0.3435,0.3409,0.3538,0.3548,0.3546,0.363,0.3642,0.3643,0.3673,0.369,0.3724,0.3732,0.3759,0.3762,0.3764,0.3871,0.38,0.3798,0.3797,0.3861,0.3864,0.3867,0,0,0,0,0,0,0.3406,0.3414,0.3542,0.3591,0.3605,0.3629,0.3641,0.3614,0.3671,0.3665,0.3678,0.3728,0.3781,0.3759,0.3761,0.3713,0.3801,0.38,0.3799,0.3798,0.3863,0.3866,0,0,0,0,0,0,0.3411,0.3418,0.3586,0.3597,0.3609,0.3694,0.3604,0.3666,0.3727,0.3659,0.3738,0.3743,0.3778,0.3779,0.3758,0.3708,0.3711,0.3801,0.38,0.38,0.3799,0,0,0,0,0,0,0,0.3415,0.3346,0.3518,0.3603,0.3613,0.3638,0.3638,0.3637,0.3728,0.3732,0.3737,0.3741,0.3809,0.3807,0.3806,0.3705,0,0,0.3801,0.3801,0,0,0,0,0,0,0,0,0.3345,0.3346,0.3518,0.3522,0.3526,0.3638,0.3638,0.3637,0.3728,0.3732,0.3736,0.3739,0.3808,0.3807,0.3806,0,0,0,0,0,0,0,0,0,0,0,0,0,0,0,0.3519,0.3522,0,0.3638,0.3638,0.3637,0.3729,0.3732,0.3735,0.3738,0.3808,0.3807,0.3806,0,0,0,0,0,0,0,0,0,0,0,0,0,0,0,0,0,0,0,0,0,0,0,0,0,0,0,0,0,0,0,0,0,0,0,0,0,0,0,0,0,0,0,0,0,0,0,0,0,0,0,0,0,0,0,0,0,0,0,0,0,0,0,0,0,0,0,0,0]}],[{"header":{"parameterUnit":"kt","parameterCategory":2,"dx":1,"dy":1,"la1":30.253999710083008,"la2":30.299108505249023,"lo1":-89.0895004272461,"lo2":-89.04439544677734,"nx":28,"ny":28,"refTime":"2022-11-01T21:00:00:Z","depth":"2","parameterNumber":3,"parameterNumberName":"V-component_of_CURRENTS"},"data":[0.0957,0.1075,0.1157,0.1428,0.1545,0.1711,0.1798,0.1855,0.188,0.1825,0.1728,0.1688,0.1396,0.1054,0.078,0.0545,0.0553,0.0488,0.0594,0.0764,0.078,0.0627,0.0625,0,0,0,0,0,0.0939,0.1032,0.1137,0.1297,0.1448,0.1499,0.1689,0.1749,0.188,0.193,0.1948,0.1638,0.1392,0.1122,0.0685,0.044,0.046,0.036,0.0461,0.0477,0.0492,0.0477,0.0332,0.0331,0.033,0.0329,0,0,0.0922,0.0968,0.1069,0.1176,0.1286,0.1455,0.1529,0.1678,0.1806,0.1909,0.1931,0.1854,0.1636,0.115,0.091,0.0629,0.066,0.0547,0.0558,0.0569,0.0554,0.0522,0.0432,0.0432,0.0432,0.0432,0.0432,0,0.0904,0.0933,0.1004,0.1104,0.1193,0.1296,0.1423,0.1503,0.1602,0.1686,0.1805,0.1793,0.1611,0.1383,0.1044,0.0893,0.0792,0.0709,0.0814,0.077,0.0744,0.071,0.0714,0.0699,0.0701,0.0702,0.0702,0.0703,0.0875,0.0913,0.1002,0.1052,0.109,0.1147,0.1225,0.1271,0.1388,0.1484,0.1588,0.1571,0.159,0.1397,0.1164,0.0939,0.0943,0.0758,0.0713,0.077,0.0733,0.0735,0.0736,0.072,0.0717,0.0716,0.0714,0,0.0862,0.0902,0.0966,0.1038,0.1067,0.1102,0.1177,0.1254,0.1283,0.14,0.1418,0.1454,0.1433,0.133,0.1251,0.1095,0.0992,0.0917,0.0916,0.0876,0.0756,0.0753,0.0737,0.0733,0.073,0.0728,0.0725,0,0.0845,0.0889,0.0942,0.0985,0.1051,0.1064,0.1138,0.1172,0.1222,0.1305,0.1277,0.1354,0.1272,0.1255,0.1153,0.1032,0.1101,0.0909,0.0869,0.0881,0.087,0.0971,0.0966,0.1018,0.1019,0.1019,0.1019,0,0.0815,0.0873,0.0926,0.0949,0.1014,0.1042,0.1065,0.1113,0.1157,0.1197,0.1234,0.1221,0.1251,0.1178,0.1121,0.1089,0.1091,0.1048,0.0886,0.0876,0.0879,0.0867,0.102,0.102,0.102,0.102,0.102,0,0.0799,0.084,0.0897,0.096,0.0966,0.1002,0.1062,0.1097,0.1133,0.1132,0.1126,0.1121,0.1151,0.1092,0.1081,0.1059,0.0994,0.0977,0.0974,0.0883,0.0809,0.0767,0.079,0.0894,0.0894,0.0893,0.0893,0,0.0777,0.0833,0.0845,0.09,0.0922,0.0926,0.0972,0.0992,0.1002,0.1033,0.1022,0.1056,0.0998,0.1001,0.0994,0.1005,0.098,0.0977,0.0905,0.0904,0.0797,0.0825,0.0831,0.0787,0.0887,0.0887,0.0888,0,0.0754,0.08,0.0803,0.0825,0.0836,0.0859,0.0891,0.0919,0.0955,0.0924,0.0961,0.0983,0.095,0.0963,0.0952,0.0958,0.0966,0.0896,0.0895,0.0863,0.0931,0.0827,0.0821,0.0923,0.0924,0.0925,0.0883,0,0.0771,0.0781,0.0787,0.0803,0.0815,0.083,0.0847,0.0852,0.0831,0.084,0.0855,0.0867,0.0873,0.0864,0.0864,0.09,0.0848,0.0834,0.0795,0.0839,0.0811,0.0815,0.0763,0.0762,0.0762,0.0761,0,0,0.0735,0.0755,0.0744,0.076,0.0773,0.0755,0.0775,0.0798,0.0805,0.0809,0.0766,0.079,0.0782,0.0831,0.0842,0.083,0.0795,0.0773,0.0818,0.0824,0.083,0.0806,0.081,0.076,0.076,0.076,0.076,0,0.0747,0.0726,0.0734,0.0748,0.0747,0.0761,0.0753,0.0761,0.076,0.0776,0.0766,0.0767,0.0741,0.0765,0.0772,0.0818,0.0746,0.0776,0.0807,0.0813,0.082,0.0826,0.0804,0.0808,0.0759,0.0759,0.0759,0,0.073,0.0732,0.0735,0.0741,0.0745,0.0766,0.0744,0.0745,0.0772,0.0733,0.0738,0.0723,0.0724,0.0729,0.0719,0.0695,0.0703,0.069,0.0693,0.0721,0.0727,0.0735,0.0743,0.0647,0.0646,0.0646,0,0,0.0729,0.0735,0.0741,0.0742,0.0738,0.0749,0.0756,0.0747,0.0752,0.0745,0.0719,0.0702,0.0713,0.0687,0.0692,0.0689,0.0685,0.0675,0.0681,0.0685,0.0715,0.0722,0.0731,0.0644,0.0644,0.0644,0,0,0.0734,0.074,0.0726,0.0724,0.0736,0.0766,0.0765,0.0761,0.0758,0.0734,0.0708,0.0697,0.0687,0.0669,0.0652,0.0649,0.063,0.0633,0.0644,0.065,0.0655,0.0691,0.0592,0,0,0,0,0,0.0745,0.0745,0.0732,0.0732,0.0749,0.0779,0.0784,0.0768,0.0741,0.0742,0.0728,0.0676,0.0662,0.0647,0.0641,0.0624,0.0622,0.0626,0.063,0.0645,0.0653,0.0658,0,0,0,0,0,0,0.0745,0.0745,0.0733,0.076,0.0764,0.0779,0.0752,0.075,0.0739,0.0731,0.069,0.0677,0.0657,0.0645,0.0641,0.0625,0.0593,0.0623,0.0627,0.063,0.0648,0.0654,0.0659,0,0,0,0,0,0.0745,0.0745,0.076,0.0762,0.0765,0.0754,0.0749,0.0747,0.0733,0.0707,0.0695,0.0711,0.0661,0.0651,0.0643,0.0628,0.0595,0.0594,0.0626,0.0628,0.0631,0.0651,0,0,0,0,0,0,0.0745,0.0762,0.0762,0.0765,0.0727,0.0752,0.075,0.0744,0.0708,0.0699,0.0729,0.0723,0.0664,0.0656,0.0649,0.063,0.0597,0.0596,0.0595,0.0628,0.063,0.0632,0,0,0,0,0,0,0.0762,0.0764,0.0764,0.0721,0.0718,0.075,0.0748,0.0745,0.0704,0.0731,0.0726,0.0726,0.0635,0.066,0.0654,0.0655,0.0599,0.0597,0.0597,0.0596,0.0629,0.0631,0,0,0,0,0,0,0.0763,0.0765,0.072,0.0718,0.0716,0.0747,0.0745,0.0739,0.0735,0.0731,0.0725,0.0721,0.0637,0.0633,0.0658,0.0662,0.0657,0.0599,0.0598,0.0597,0.0597,0,0,0,0,0,0,0,0.0765,0.0743,0.0742,0.0717,0.0715,0.0787,0.0788,0.079,0.0734,0.073,0.0726,0.0723,0.0606,0.0604,0.0603,0.0668,0,0,0.0599,0.0598,0,0,0,0,0,0,0,0,0.0743,0.0743,0.0742,0.0742,0.0742,0.0787,0.0788,0.0789,0.0733,0.073,0.0727,0.0724,0.0605,0.0604,0.0603,0,0,0,0,0,0,0,0,0,0,0,0,0,0,0,0.0742,0.0742,0,0.0787,0.0788,0.0789,0.0733,0.073,0.0728,0.0725,0.0605,0.0604,0.0603,0,0,0,0,0,0,0,0,0,0,0,0,0,0,0,0,0,0,0,0,0,0,0,0,0,0,0,0,0,0,0,0,0,0,0,0,0,0,0,0,0,0,0,0,0,0,0,0,0,0,0,0,0,0,0,0,0,0,0,0,0,0,0,0,0,0,0,0,0]}]],[[{"header":{"parameterUnit":"kt","parameterCategory":2,"dx":1,"dy":1,"la1":30.253999710083008,"la2":30.299108505249023,"lo1":-89.0895004272461,"lo2":-89.04439544677734,"nx":28,"ny":28,"refTime":"2022-11-01T21:00:00:Z","depth":"4","parameterNumber":2,"parameterNumberName":"U-component_of_CURRENTS"},"data":[0.0688,0.0591,0.0459,0.0354,0.0328,0.0376,0.0472,0.0655,0.0717,0.0972,0.1044,0.1237,0.1358,0.1477,0.1511,0.1534,0.1531,0.175,0.1746,0.182,0.1834,0.1847,0.1777,0,0,0,0,0,0.0692,0.0586,0.0495,0.0439,0.0429,0.048,0.0627,0.0744,0.0994,0.1082,0.1206,0.1343,0.1473,0.1592,0.1541,0.1693,0.1746,0.1624,0.1675,0.1829,0.1844,0.1771,0,0,0,0,0,0,0.0702,0.063,0.0562,0.0526,0.0548,0.0594,0.0691,0.0831,0.0951,0.1276,0.134,0.1584,0.178,0.1802,0.1824,0.1816,0.1781,0.172,0.1741,0.1757,0.168,0.1576,0.1496,0,0,0,0,0,0.0726,0.0699,0.0663,0.0632,0.0678,0.0733,0.0849,0.0916,0.1129,0.1313,0.1508,0.1631,0.1787,0.1875,0.1906,0.1909,0.2016,0.1983,0.199,0.1944,0.1884,0.1831,0.1827,0.1905,0.1907,0.1908,0.1909,0,0.0776,0.0748,0.0743,0.0738,0.0767,0.0838,0.09,0.1066,0.1154,0.1445,0.151,0.1746,0.1894,0.1946,0.2048,0.2052,0.2041,0.2025,0.1975,0.1908,0.1853,0.1845,0.1837,0.1922,0.192,0.1919,0.1918,0,0.0807,0.0812,0.0789,0.0828,0.0872,0.0881,0.1026,0.1086,0.126,0.1425,0.1509,0.1763,0.1908,0.2016,0.2139,0.2089,0.2108,0.2086,0.218,0.213,0.1868,0.1854,0.1943,0.1938,0.1934,0.1931,0.1928,0,0.0857,0.0867,0.088,0.0876,0.0899,0.0958,0.1041,0.1118,0.1272,0.1387,0.1577,0.1723,0.1898,0.2008,0.2033,0.2057,0.2156,0.2027,0.1979,0.2071,0.2057,0.202,0.1999,0.2207,0.2206,0.2206,0.2206,0,0.0889,0.0913,0.0894,0.091,0.0949,0.099,0.1035,0.1165,0.1235,0.1437,0.1541,0.1715,0.1847,0.1917,0.2013,0.1986,0.2148,0.2087,0.197,0.1956,0.2011,0.1989,0.2206,0.2206,0.2206,0.2205,0.2205,0,0.0929,0.0924,0.0913,0.095,0.0959,0.0994,0.1091,0.114,0.1292,0.1374,0.1537,0.1623,0.1802,0.18,0.1959,0.1911,0.1933,0.1964,0.1963,0.1778,0.1649,0.1694,0.1886,0.1884,0.1882,0.188,0.1878,0,0.095,0.093,0.0951,0.0977,0.0975,0.1035,0.1083,0.1155,0.1241,0.1332,0.1466,0.157,0.1605,0.1668,0.1757,0.1796,0.1867,0.1806,0.1774,0.1773,0.1615,0.176,0.1813,0.1849,0.1853,0.1855,0.1857,0,0.0958,0.0952,0.0967,0.0973,0.1022,0.1019,0.1091,0.1142,0.1197,0.1288,0.137,0.1503,0.1557,0.1576,0.1604,0.1681,0.1814,0.1629,0.1628,0.1629,0.1897,0.174,0.1742,0.1792,0.1797,0.18,0.1837,0,0.0955,0.0972,0.0977,0.0993,0.1005,0.1017,0.1048,0.1088,0.1128,0.1154,0.128,0.1307,0.1358,0.1415,0.1386,0.1544,0.1488,0.1446,0.1363,0.1495,0.1487,0.1503,0.1262,0.1259,0.1257,0.1255,0,0,0.098,0.0968,0.097,0.0974,0.098,0.0993,0.0996,0.1014,0.1006,0.1037,0.1029,0.1128,0.1134,0.123,0.1286,0.1266,0.1259,0.1261,0.1422,0.1441,0.1458,0.1459,0.1478,0.125,0.1249,0.1248,0.1248,0,0.0962,0.0982,0.0975,0.0978,0.0978,0.0963,0.0981,0.096,0.0973,0.0995,0.0982,0.1051,0.1049,0.1081,0.109,0.1216,0.1185,0.1244,0.1348,0.1398,0.1421,0.144,0.1445,0.1464,0.1241,0.1242,0.1242,0,0.0962,0.0956,0.0953,0.0943,0.0927,0.0923,0.0888,0.0888,0.0904,0.0831,0.0863,0.0879,0.0864,0.0924,0.0954,0.0906,0.1081,0.1023,0.1037,0.1053,0.1101,0.1127,0.115,0.0852,0.0851,0.085,0,0,0.0956,0.0957,0.0931,0.0936,0.0934,0.0898,0.0885,0.0866,0.0834,0.0823,0.0811,0.0812,0.0836,0.0841,0.085,0.0895,0.088,0.098,0.0998,0.1013,0.1038,0.109,0.1115,0.0847,0.0846,0.0846,0,0,0.0937,0.0911,0.0916,0.0912,0.0898,0.0831,0.0826,0.0812,0.0786,0.0795,0.0747,0.074,0.0807,0.0772,0.0725,0.0866,0.0786,0.0794,0.0892,0.0914,0.0932,0.0961,0.0686,0,0,0,0,0,0.0916,0.0919,0.0925,0.0922,0.0873,0.0842,0.0831,0.0783,0.0782,0.0783,0.0751,0.074,0.074,0.0695,0.0694,0.0806,0.08,0.0808,0.0816,0.0955,0.0979,0.0999,0,0,0,0,0,0,0.0914,0.0911,0.0924,0.0865,0.0853,0.0841,0.0794,0.078,0.078,0.0775,0.0742,0.0738,0.0694,0.0695,0.0694,0.0803,0.0687,0.0803,0.081,0.0816,0.0963,0.0982,0.0999,0,0,0,0,0,0.0913,0.091,0.0854,0.0863,0.0853,0.0794,0.0794,0.0782,0.0782,0.073,0.0724,0.0753,0.0695,0.0693,0.0695,0.0805,0.0687,0.0687,0.0808,0.0813,0.0818,0.0972,0,0,0,0,0,0,0.0911,0.0881,0.0849,0.0843,0.0865,0.0793,0.0783,0.0784,0.0736,0.0729,0.0737,0.0734,0.0695,0.0694,0.0693,0.081,0.0687,0.0687,0.0687,0.0812,0.0816,0.082,0,0,0,0,0,0,0.0882,0.0876,0.0846,0.0852,0.0845,0.0792,0.0784,0.0784,0.0739,0.0746,0.0741,0.0737,0.0723,0.0694,0.0694,0.0691,0.0688,0.0688,0.0687,0.0687,0.0815,0.0819,0,0,0,0,0,0,0.0878,0.0873,0.0852,0.0847,0.0842,0.0762,0.0792,0.0758,0.0704,0.075,0.0703,0.0702,0.0726,0.0722,0.0694,0.0692,0.0691,0.0688,0.0688,0.0687,0.0687,0,0,0,0,0,0,0,0.0874,0.0932,0.0894,0.0844,0.0839,0.0786,0.0783,0.0781,0.0703,0.0703,0.0703,0.0703,0.0689,0.0689,0.0689,0.0693,0,0,0.0688,0.0688,0,0,0,0,0,0,0,0,0.0932,0.0932,0.0894,0.0893,0.0892,0.0785,0.0783,0.0781,0.0703,0.0703,0.0703,0.0703,0.0689,0.0689,0.0689,0,0,0,0,0,0,0,0,0,0,0,0,0,0,0,0.0894,0.0893,0,0.0785,0.0783,0.0782,0.0703,0.0703,0.0703,0.0703,0.0689,0.0689,0.0689,0,0,0,0,0,0,0,0,0,0,0,0,0,0,0,0,0,0,0,0,0,0,0,0,0,0,0,0,0,0,0,0,0,0,0,0,0,0,0,0,0,0,0,0,0,0,0,0,0,0,0,0,0,0,0,0,0,0,0,0,0,0,0,0,0,0,0,0,0]}],[{"header":{"parameterUnit":"kt","parameterCategory":2,"dx":1,"dy":1,"la1":30.253999710083008,"la2":30.299108505249023,"lo1":-89.0895004272461,"lo2":-89.04439544677734,"nx":28,"ny":28,"refTime":"2022-11-01T21:00:00:Z","depth":"4","parameterNumber":3,"parameterNumberName":"V-component_of_CURRENTS"},"data":[0.0608,0.0693,0.0751,0.0867,0.0966,0.1105,0.1182,0.1246,0.1213,0.1234,0.1077,0.1056,0.0767,0.0921,0.0489,0.0436,0.041,0.0106,0.0102,0.0098,0.0107,0.0116,0.0275,0,0,0,0,0,0.0608,0.0666,0.0771,0.0908,0.1019,0.111,0.1227,0.1299,0.1352,0.1295,0.1288,0.1106,0.0817,0.0702,0.0496,0.0466,0.0261,0.0221,0.0222,0.0104,0.0114,0.0266,0,0,0,0,0,0,0.062,0.0665,0.0774,0.0901,0.1022,0.1125,0.1208,0.1262,0.1312,0.1312,0.1275,0.1093,0.1013,0.0723,0.0515,0.0322,0.0302,0.0269,0.027,0.0278,0.0419,0.0473,0.0266,0,0,0,0,0,0.0627,0.0686,0.0759,0.0903,0.1016,0.1133,0.1248,0.1277,0.1351,0.138,0.1297,0.1151,0.0951,0.0735,0.0504,0.032,0.0279,0.018,0.0186,0.0311,0.0336,0.0311,0.0332,0.0154,0.0156,0.0157,0.0157,0,0.0648,0.0686,0.0831,0.0901,0.0966,0.1078,0.1163,0.1248,0.1302,0.1307,0.1313,0.1182,0.1121,0.0762,0.0624,0.0332,0.0328,0.0207,0.0342,0.0355,0.0323,0.0342,0.0361,0.0166,0.0165,0.0164,0.0163,0,0.0656,0.0723,0.0803,0.0914,0.096,0.1024,0.1162,0.1217,0.1249,0.1296,0.1304,0.1252,0.1087,0.0942,0.0727,0.0637,0.0452,0.0379,0.0525,0.0486,0.0367,0.0383,0.018,0.0176,0.0174,0.0172,0.017,0,0.0692,0.0739,0.0847,0.0886,0.0962,0.1025,0.1107,0.1148,0.1201,0.125,0.124,0.1233,0.1135,0.1012,0.0893,0.0695,0.0689,0.0604,0.0551,0.0718,0.0731,0.069,0.0701,0.062,0.0622,0.0624,0.0626,0,0.071,0.0789,0.0848,0.088,0.0974,0.1017,0.1071,0.1132,0.1184,0.1208,0.1217,0.1183,0.117,0.1049,0.0942,0.0971,0.0741,0.0758,0.062,0.0614,0.0706,0.0713,0.0628,0.0628,0.0629,0.063,0.063,0,0.0744,0.0791,0.0852,0.094,0.0959,0.1001,0.1074,0.1118,0.1162,0.1184,0.1202,0.1207,0.1188,0.119,0.1047,0.1101,0.0999,0.0931,0.0919,0.0877,0.0839,0.0799,0.0749,0.0752,0.0754,0.0756,0.0758,0,0.0757,0.0814,0.0856,0.0916,0.0951,0.1006,0.1043,0.1097,0.1132,0.1153,0.1178,0.1206,0.1223,0.1228,0.1188,0.1124,0.1048,0.1151,0.0906,0.0898,0.0869,0.0816,0.1053,0.0789,0.0785,0.0782,0.078,0,0.0765,0.0852,0.0859,0.0891,0.0951,0.0986,0.103,0.1078,0.1105,0.1139,0.1151,0.1207,0.1208,0.1218,0.1219,0.1174,0.1084,0.1134,0.113,0.1023,0.0885,0.0854,0.0832,0.1061,0.106,0.1058,0.0801,0,0.0809,0.0843,0.0864,0.0899,0.0934,0.0971,0.1012,0.1046,0.1073,0.1094,0.1135,0.1155,0.117,0.1178,0.119,0.1175,0.1118,0.1121,0.1092,0.1091,0.0976,0.0959,0.1147,0.1146,0.1146,0.1145,0,0,0.0795,0.0826,0.0861,0.0884,0.0911,0.0945,0.0969,0.1001,0.1043,0.1062,0.1063,0.1103,0.1126,0.1151,0.1165,0.1168,0.1095,0.1155,0.1102,0.1098,0.1093,0.0984,0.0968,0.1144,0.1144,0.1144,0.1144,0,0.0799,0.0832,0.085,0.0877,0.0916,0.0935,0.0949,0.0983,0.1007,0.1045,0.1053,0.1079,0.1108,0.1119,0.1128,0.1159,0.1093,0.1154,0.1167,0.11,0.1096,0.1093,0.0985,0.0971,0.1143,0.1143,0.1143,0,0.0787,0.0809,0.0825,0.0863,0.0884,0.0908,0.0913,0.0955,0.0979,0.0984,0.1024,0.104,0.1054,0.1084,0.1099,0.1084,0.1067,0.1113,0.1115,0.1123,0.1054,0.105,0.1047,0.1085,0.1085,0.1085,0,0,0.0781,0.081,0.0835,0.0861,0.0876,0.09,0.092,0.0938,0.0966,0.0982,0.0999,0.1017,0.1041,0.1052,0.1077,0.11,0.1049,0.1107,0.1109,0.1112,0.1121,0.1053,0.105,0.1085,0.1085,0.1085,0,0,0.0778,0.0812,0.0812,0.0845,0.087,0.0898,0.0924,0.0934,0.0967,0.0976,0.0986,0.0993,0.1036,0.1034,0.1028,0.1062,0.1049,0.1051,0.1067,0.1071,0.1073,0.1081,0.1019,0,0,0,0,0,0.078,0.0806,0.0805,0.0813,0.0856,0.0892,0.09,0.0923,0.0926,0.0947,0.0969,0.0968,0.1028,0.1024,0.1031,0.1043,0.1081,0.1081,0.1082,0.111,0.1113,0.1116,0,0,0,0,0,0,0.0783,0.0792,0.0805,0.0831,0.0841,0.0891,0.0887,0.0893,0.0925,0.0927,0.0963,0.0968,0.0975,0.1021,0.1027,0.1038,0.1017,0.1081,0.1082,0.1082,0.1111,0.1114,0.1116,0,0,0,0,0,0.0786,0.0793,0.0855,0.0831,0.084,0.0875,0.0887,0.0892,0.0921,0.094,0.0947,0.0939,0.0974,0.0982,0.1024,0.1035,0.1013,0.1015,0.1081,0.1082,0.1082,0.1112,0,0,0,0,0,0,0.0788,0.0798,0.0858,0.0861,0.083,0.0873,0.088,0.0891,0.0932,0.0939,0.0915,0.0917,0.0974,0.098,0.0985,0.1034,0.1009,0.1012,0.1013,0.1082,0.1082,0.1082,0,0,0,0,0,0,0.0795,0.0801,0.0859,0.0856,0.086,0.0872,0.0878,0.0903,0.0933,0.0905,0.0907,0.0915,0.0967,0.0979,0.0983,0.1021,0.1006,0.1009,0.101,0.1011,0.1082,0.1082,0,0,0,0,0,0,0.0798,0.0803,0.0855,0.0858,0.0861,0.0906,0.0895,0.0938,0.0928,0.0903,0.0929,0.0929,0.0966,0.0971,0.0981,0.1017,0.102,0.1006,0.1008,0.1009,0.101,0,0,0,0,0,0,0,0.08,0.0757,0.0835,0.086,0.0862,0.0898,0.0899,0.09,0.0928,0.0928,0.0928,0.0929,0.0993,0.0996,0.0998,0.1014,0,0,0.1006,0.1007,0,0,0,0,0,0,0,0,0.0755,0.0757,0.0835,0.0836,0.0837,0.0898,0.0899,0.0899,0.0928,0.0928,0.0928,0.0929,0.0994,0.0996,0.0998,0,0,0,0,0,0,0,0,0,0,0,0,0,0,0,0.0836,0.0836,0,0.0898,0.0899,0.0899,0.0928,0.0928,0.0928,0.0929,0.0994,0.0996,0.0998,0,0,0,0,0,0,0,0,0,0,0,0,0,0,0,0,0,0,0,0,0,0,0,0,0,0,0,0,0,0,0,0,0,0,0,0,0,0,0,0,0,0,0,0,0,0,0,0,0,0,0,0,0,0,0,0,0,0,0,0,0,0,0,0,0,0,0,0,0]}]]]